Weather History for KMTC - July, 2013

Change the Weather History Date:

Thursday, July 18, 2013

  Actual Average Record
Temperature  
Mean Temperature 84 °F -  
Max Temperature 92 °F 84 °F 94 °F (1991)
Min Temperature 76 °F 62 °F 50 °F (1971)
Cooling Degree Days 19    
Growing Degree Days 34 (Base 50)    
Moisture  
Dew Point 75 °F    
Average Humidity 79    
Maximum Humidity 95    
Minimum Humidity 58    
Precipitation  
Precipitation 0.73 in - - ()
Sea Level Pressure  
Sea Level Pressure 30.06 in    
Wind  
Wind Speed 5 mph (SSW)    
Max Wind Speed 15 mph    
Max Gust Speed 26 mph    
Visibility 9 miles    
Events Rain , Thunderstorm    
Averages and records for this station are not official NWS values.
T = Trace of Precipitation, MM = Missing Value Source: NWS Daily Summary

Daily Weather History Graph

Daily Weather History Graph

Search for Another Location

Airport or City:

Trip Planner

Search our weather history database for the weather conditions in past years. The results will help you decide how hot, cold, wet, or windy it might be!

Date:

Astronomy

Jul. 18, 2013 Rise Set
Actual Time 6:09 AM EDT 9:04 PM EDT
Civil Twilight 5:36 AM EDT 9:38 PM EDT
Nautical Twilight 4:53 AM EDT 10:20 PM EDT
Astronomical Twilight 4:04 AM EDT 11:09 PM EDT
Moon 4:59 PM EDT (7/18) 2:00 AM EDT (7/18)
Length of Visible Light 16h 01m
Length of Day
14h 54m
Waxing Gibbous, 77% of the Moon is Illuminated
Jul 18
Waxing Gibbous
Jul 22
Full
Jul 29
Last Quarter
Aug 6
New
Aug 14
First Quarter

Hourly Weather History & Observations

Time (EDT) Temp. Heat Index Dew Point Humidity Pressure Visibility Wind Dir Wind Speed Gust Speed Precip Events Conditions
12:58 AM 82.0 °F 88.9 °F 75.2 °F 80% 30.15 in 10.0 mi West 4.6 mph - N/A   Clear
1:58 AM 81.5 °F 86.7 °F 73.4 °F 76% 30.14 in 10.0 mi WNW 5.8 mph - N/A   Clear
2:58 AM 79.5 °F - 72.5 °F 79% 30.13 in 10.0 mi WNW 3.5 mph - N/A   Clear
3:58 AM 78.6 °F - 72.0 °F 80% 30.13 in 10.0 mi West 4.6 mph - N/A   Clear
4:58 AM 77.9 °F - 71.6 °F 81% 30.13 in 10.0 mi West 2.3 mph - N/A   Clear
5:58 AM 76.8 °F - 71.4 °F 83% 30.13 in 10.0 mi WSW 2.3 mph - N/A   Clear
6:55 AM 76.6 °F - 71.8 °F 85% 30.14 in 10.0 mi Calm Calm - N/A   Clear
7:48 AM 80.6 °F 85.4 °F 73.4 °F 79% 30.13 in 10.0 mi ESE 2.3 mph - N/A   Light Drizzle
7:50 AM 80.6 °F 85.4 °F 73.4 °F 79% 30.13 in 10.0 mi SE 2.3 mph - N/A   Clear
7:55 AM 83.7 °F 89.4 °F 72.7 °F 69% 30.14 in 10.0 mi Calm Calm - N/A   Clear
7:56 AM 80.6 °F 85.4 °F 73.4 °F 79% 30.13 in 10.0 mi Variable 1.2 mph - N/A   Clear
8:55 AM 82.2 °F 88.3 °F 73.9 °F 76% 30.14 in 7.0 mi SSE 3.5 mph - N/A   Clear
9:55 AM 85.3 °F 93.7 °F 75.0 °F 71% 30.13 in 10.0 mi South 5.8 mph - N/A   Clear
10:55 AM 87.1 °F 97.8 °F 76.1 °F 70% 30.12 in 10.0 mi Variable 4.6 mph - N/A   Clear
11:55 AM 90.3 °F 102.3 °F 76.1 °F 63% 30.12 in 10.0 mi South 6.9 mph - N/A   Scattered Clouds
12:55 PM 84.9 °F 93.7 °F 75.2 °F 73% 30.11 in 10.0 mi SE 6.9 mph - N/A   Scattered Clouds
1:55 PM 87.8 °F 99.1 °F 76.5 °F 69% 30.09 in 10.0 mi ESE 4.6 mph - N/A   Scattered Clouds
2:55 PM 89.4 °F 100.0 °F 75.6 °F 63% 30.06 in 10.0 mi SSW 12.7 mph - N/A   Scattered Clouds
3:55 PM 92.1 °F 103.6 °F 75.4 °F 58% 30.04 in 10.0 mi SSW 15.0 mph 19.6 mph N/A   Partly Cloudy
4:55 PM 91.9 °F 103.2 °F 75.2 °F 58% 30.02 in 10.0 mi SSW 10.4 mph - N/A   Partly Cloudy
5:32 PM 86.0 °F 96.9 °F 77.0 °F 74% 29.98 in 10.0 mi South 11.5 mph - N/A Thunderstorm Partly Cloudy
5:36 PM 86.0 °F 96.9 °F 77.0 °F 74% 29.97 in 10.0 mi South 11.5 mph - N/A Thunderstorm Thunderstorm
5:46 PM 86.0 °F 96.9 °F 77.0 °F 74% 29.99 in 3.0 mi South 11.5 mph - N/A Rain , Thunderstorm Thunderstorms and Rain
5:48 PM 84.2 °F 94.1 °F 77.0 °F 79% 30.00 in 1.5 mi SSW 15.0 mph - N/A Rain , Thunderstorm Thunderstorms and Rain
5:55 PM 80.6 °F 87.1 °F 77.0 °F 89% 30.03 in 1.5 mi SW 9.2 mph 26.5 mph N/A Rain , Thunderstorm Thunderstorms and Rain
6:05 PM 78.8 °F - 75.2 °F 89% 30.02 in 1.1 mi SW 10.4 mph 26.5 mph N/A Rain , Thunderstorm Heavy Thunderstorms and Rain
6:11 PM 77.0 °F - 73.4 °F 89% 30.01 in 3.0 mi ESE 4.6 mph 26.5 mph N/A Rain , Thunderstorm Light Thunderstorms and Rain
6:32 PM 77.0 °F - 73.4 °F 89% 30.00 in 10.0 mi South 4.6 mph - N/A Thunderstorm Mostly Cloudy
6:39 PM 77.0 °F - 73.4 °F 89% 30.00 in 10.0 mi ESE 3.5 mph - N/A   Mostly Cloudy
6:55 PM 78.1 °F - 72.9 °F 84% 30.00 in 10.0 mi Calm Calm - N/A   Mostly Cloudy
7:55 PM 79.2 °F - 75.4 °F 88% 29.99 in 10.0 mi South 4.6 mph - N/A   Mostly Cloudy
8:58 PM 80.6 °F 86.4 °F 75.7 °F 85% 29.96 in 10.0 mi SSW 6.9 mph - N/A   Clear
9:58 PM 77.0 °F - 75.6 °F 95% 29.96 in 10.0 mi SSW 6.9 mph - N/A   Clear
10:58 PM 78.1 °F - 74.7 °F 89% 29.96 in 10.0 mi SSW 5.8 mph - N/A   Clear
11:58 PM 77.7 °F - 75.0 °F 91% 29.96 in 10.0 mi SSW 5.8 mph - N/A   Clear